Weather in Gromyki

Russia / Bryansk Oblast     52°58′28″N   33°28′22″E
temp.,
°C
wind,
m/s
gust,
m/s
humid.,
%
clouds,
%
prec.,
mm/h
press.,
hPa
HPBL,
m
11 april, sun
sun1100:00+4ssw38700 0.0 1026126
03:00+3ssw37720 0.0 1027119
06:00+2ssw34730 0.0 102849
09:00+7ssw34600 0.0 1029253
12:00+12s33460 0.0 1029769
15:00+14s22400 0.0 10291212
18:00+14ese23500 0.0 1028100
21:00+9ese33630 0.0 102930
12 april, mon
mon1200:00+7e33680 0.0 103034
03:00+6e3573100 0.0 103072
06:00+5ene3878100 0.0 1029148
09:00+8ene51259100 0.0 1028453
12:00+9e5867100 0.0 1027630
15:00+10e3576100 0.6 1026450
18:00+12e3678100 0.0 1024363
21:00+9ne3590100 0.0 102475
13 april, tue
tue1300:00+9ne3693100 0.0 102298
03:00+9se1290100 0.0 102213
06:00+9se3388100 0.0 102228
09:00+13se477297 0.0 1022242
12:00+17se5858100 0.0 10211055
15:00+18sse475661 0.1 10201438
18:00+16sse486664 0.6 1019436
21:00+13s3584100 1.3 1020123
14 april, wed
wed1400:00+11sse3888100 0.1 1020321
03:00+10sse359347 0.1 1019104
06:00+9se2594100 0.0 1019148
09:00+12sse248478 0.0 1018294
12:00+13s2474100 0.4 1018529
15:00+15sse3567100 1.0 1017792
18:00+12sse61084100 1.7 1016555
21:00+11se3694100 8.6 1016224
15 april, thu
thu1500:00+10s3692100 3.1 1015214
03:00+9se2597100 6.2 1015230
06:00+8sse359777 1.0 1015162
09:00+12s238194 1.1 1015345
12:00+15ssw2259100 1.0 1015982
15:00+16nne115486 1.5 10141269
18:00+15ne1266100 1.3 1014102
21:00+12ene2380100 1.6 101441